Time,TemperatureF,DewpointF,PressureIn,WindDirection,WindDirectionDegrees,WindSpeedMPH,WindSpeedGustMPH,Humidity,HourlyPrecipIn,Conditions,Clouds,dailyrainin,SoftwareType,DateUTC
2013-05-29 00:03:00,58.0,57.0,30.11,SSE,148,0.0,1.0,95,0.00,,,0.61,,2013-05-29 04:03:00,
2013-05-29 00:13:00,58.0,57.0,30.11,SSE,148,0.0,1.0,95,0.00,,,0.61,,2013-05-29 04:13:00,
2013-05-29 00:23:00,58.0,57.0,30.11,South,172,0.0,3.0,95,0.00,,,0.61,,2013-05-29 04:23:00,
2013-05-29 00:33:00,58.0,57.0,30.11,South,170,0.0,1.0,95,0.00,,,0.61,,2013-05-29 04:33:00,
2013-05-29 00:42:00,58.0,57.0,30.11,South,170,0.0,1.0,95,0.00,,,0.61,,2013-05-29 04:42:00,
2013-05-29 00:52:00,58.0,57.0,30.11,SSE,155,0.0,1.0,95,0.00,,,0.61,,2013-05-29 04:52:00,
2013-05-29 01:03:00,58.0,57.0,30.11,SSE,162,0.0,2.0,95,0.00,,,0.61,,2013-05-29 05:03:00,
2013-05-29 01:12:00,58.0,57.0,30.11,SSE,162,0.0,2.0,95,0.00,,,0.61,,2013-05-29 05:12:00,
2013-05-29 01:22:00,58.0,57.0,30.10,SSE,166,0.0,2.0,95,0.00,,,0.61,,2013-05-29 05:22:00,
2013-05-29 01:33:00,58.0,57.0,30.10,SSE,155,0.0,1.0,95,0.00,,,0.61,,2013-05-29 05:33:00,
2013-05-29 01:42:00,58.0,57.0,30.10,SSE,155,0.0,1.0,95,0.00,,,0.61,,2013-05-29 05:42:00,
2013-05-29 01:52:00,58.0,57.0,30.10,SSE,167,0.0,1.0,95,0.00,,,0.61,,2013-05-29 05:52:00,
2013-05-29 02:02:00,58.0,57.0,30.10,South,172,0.0,1.0,95,0.00,,,0.61,,2013-05-29 06:02:00,
2013-05-29 02:12:00,58.0,57.0,30.10,South,172,0.0,1.0,95,0.00,,,0.61,,2013-05-29 06:12:00,
2013-05-29 02:22:00,58.0,57.0,30.09,South,187,0.0,1.0,95,0.00,,,0.61,,2013-05-29 06:22:00,
2013-05-29 02:32:00,58.0,57.0,30.08,SSE,165,0.0,1.0,95,0.00,,,0.61,,2013-05-29 06:32:00,
2013-05-29 02:42:00,58.0,57.0,30.08,SSE,165,0.0,1.0,95,0.00,,,0.61,,2013-05-29 06:42:00,
2013-05-29 02:52:00,58.0,57.0,30.08,SSE,155,0.0,1.0,95,0.00,,,0.61,,2013-05-29 06:52:00,
2013-05-29 03:01:00,58.0,57.0,30.07,SSE,153,0.0,2.0,95,0.00,,,0.61,,2013-05-29 07:01:00,
2013-05-29 03:11:00,58.0,57.0,30.07,SSE,153,0.0,2.0,95,0.00,,,0.61,,2013-05-29 07:11:00,
2013-05-29 03:22:00,58.0,57.0,30.07,East,80,0.0,2.0,95,0.00,,,0.61,,2013-05-29 07:22:00,
2013-05-29 03:34:00,58.0,57.0,30.07,East,80,0.0,1.0,96,0.00,,,0.61,,2013-05-29 07:34:00,
2013-05-29 03:42:00,58.0,57.0,30.07,East,80,0.0,1.0,96,0.00,,,0.61,,2013-05-29 07:42:00,
2013-05-29 03:52:00,58.0,57.0,30.06,SE,143,0.0,1.0,96,0.00,,,0.61,,2013-05-29 07:52:00,
2013-05-29 04:02:00,58.0,57.0,30.06,SSE,166,1.0,2.0,96,0.00,,,0.61,,2013-05-29 08:02:00,
2013-05-29 04:11:00,58.0,57.0,30.06,SSE,166,1.0,2.0,96,0.00,,,0.61,,2013-05-29 08:11:00,
2013-05-29 04:22:00,58.0,57.0,30.06,SSE,152,0.0,1.0,96,0.00,,,0.61,,2013-05-29 08:22:00,
2013-05-29 04:32:00,58.0,57.0,30.06,SSE,158,0.0,2.0,96,0.00,,,0.61,,2013-05-29 08:32:00,
2013-05-29 04:42:00,58.0,57.0,30.06,SSE,158,0.0,2.0,96,0.00,,,0.61,,2013-05-29 08:42:00,
2013-05-29 04:52:00,58.0,57.0,30.06,SE,145,0.0,3.0,96,0.00,,,0.61,,2013-05-29 08:52:00,
2013-05-29 05:01:00,58.0,57.0,30.06,SSE,158,0.0,2.0,96,0.00,,,0.61,,2013-05-29 09:01:00,
2013-05-29 05:11:00,58.0,57.0,30.06,SSE,158,0.0,2.0,96,0.00,,,0.61,,2013-05-29 09:11:00,
2013-05-29 05:21:00,58.0,57.0,30.06,SSE,153,0.0,1.0,96,0.00,,,0.61,,2013-05-29 09:21:00,
2013-05-29 05:33:00,58.0,57.0,30.06,SE,143,0.0,1.0,96,0.00,,,0.61,,2013-05-29 09:33:00,
2013-05-29 05:42:00,58.0,57.0,30.06,SE,143,0.0,1.0,96,0.00,,,0.61,,2013-05-29 09:42:00,
2013-05-29 05:52:00,57.0,56.0,30.06,SE,142,0.0,1.0,96,0.00,,,0.61,,2013-05-29 09:52:00,
2013-05-29 06:03:00,57.0,56.0,30.06,SE,143,0.0,0.0,96,0.00,,,0.61,,2013-05-29 10:03:00,
2013-05-29 06:12:00,57.0,56.0,30.06,SE,143,0.0,0.0,96,0.00,,,0.61,,2013-05-29 10:12:00,
2013-05-29 06:22:00,57.0,56.0,30.06,SE,143,0.0,0.0,96,0.00,,,0.61,,2013-05-29 10:22:00,
2013-05-29 06:33:00,58.0,57.0,30.06,SE,141,0.0,1.0,96,0.00,,,0.61,,2013-05-29 10:33:00,
2013-05-29 06:42:00,58.0,57.0,30.06,SE,141,0.0,1.0,96,0.00,,,0.61,,2013-05-29 10:42:00,
2013-05-29 06:52:00,58.0,57.0,30.07,North,353,0.0,2.0,96,0.00,,,0.61,,2013-05-29 10:52:00,
2013-05-29 07:02:00,59.0,58.0,30.07,SSE,156,0.0,1.0,96,0.00,,,0.61,,2013-05-29 11:02:00,
2013-05-29 07:12:00,59.0,58.0,30.07,SSE,156,0.0,1.0,96,0.00,,,0.61,,2013-05-29 11:12:00,
2013-05-29 07:22:00,59.0,58.0,30.07,NE,39,0.0,1.0,96,0.00,,,0.61,,2013-05-29 11:22:00,
2013-05-29 07:32:00,59.0,58.0,30.08,North,350,0.0,2.0,96,0.00,,,0.61,,2013-05-29 11:32:00,
2013-05-29 07:42:00,59.0,58.0,30.08,North,350,0.0,2.0,96,0.00,,,0.61,,2013-05-29 11:42:00,
2013-05-29 07:52:00,60.0,59.0,30.07,NE,35,0.0,1.0,96,0.00,,,0.61,,2013-05-29 11:52:00,
2013-05-29 08:01:00,60.0,59.0,30.07,ENE,70,0.0,0.0,96,0.00,,,0.61,,2013-05-29 12:01:00,
2013-05-29 08:11:00,60.0,59.0,30.07,ENE,70,0.0,0.0,96,0.00,,,0.61,,2013-05-29 12:11:00,
2013-05-29 08:22:00,61.0,60.0,30.07,SSE,162,0.0,0.0,95,0.00,,,0.61,,2013-05-29 12:22:00,
2013-05-29 08:32:00,61.0,59.0,30.08,SSE,162,0.0,1.0,94,0.00,,,0.61,,2013-05-29 12:32:00,
2013-05-29 08:42:00,61.0,59.0,30.08,SSE,162,0.0,1.0,94,0.00,,,0.61,,2013-05-29 12:42:00,
2013-05-29 08:52:00,62.0,60.0,30.07,SSE,160,0.0,1.0,94,0.00,,,0.61,,2013-05-29 12:52:00,
2013-05-29 09:02:00,63.0,61.0,30.08,SE,146,0.0,2.0,93,0.00,,,0.61,,2013-05-29 13:02:00,
2013-05-29 09:11:00,63.0,61.0,30.08,SE,146,0.0,2.0,93,0.00,,,0.61,,2013-05-29 13:11:00,
2013-05-29 09:22:00,64.0,61.0,30.08,SSE,153,0.0,1.0,91,0.00,,,0.61,,2013-05-29 13:22:00,
2013-05-29 09:32:00,65.0,62.0,30.08,WNW,297,0.0,1.0,90,0.00,,,0.61,,2013-05-29 13:32:00,
2013-05-29 09:42:00,65.0,62.0,30.08,WNW,297,0.0,1.0,90,0.00,,,0.61,,2013-05-29 13:42:00,
2013-05-29 09:53:00,66.0,62.0,30.08,NNW,344,0.0,3.0,88,0.00,,,0.61,,2013-05-29 13:53:00,
2013-05-29 10:02:00,67.0,63.0,30.09,SE,124,0.0,2.0,87,0.00,,,0.61,,2013-05-29 14:02:00,
2013-05-29 10:11:00,67.0,63.0,30.09,SE,124,0.0,2.0,87,0.00,,,0.61,,2013-05-29 14:11:00,
2013-05-29 10:21:00,68.0,63.0,30.08,NNW,335,0.0,4.0,84,0.00,,,0.61,,2013-05-29 14:21:00,
2013-05-29 10:32:00,67.0,63.0,30.08,SW,214,1.0,6.0,86,0.00,,,0.61,,2013-05-29 14:32:00,
2013-05-29 10:42:00,67.0,63.0,30.08,SW,214,1.0,6.0,86,0.00,,,0.61,,2013-05-29 14:42:00,
2013-05-29 10:52:00,69.0,64.0,30.07,North,5,0.0,4.0,84,0.00,,,0.61,,2013-05-29 14:52:00,
2013-05-29 11:01:00,71.0,64.0,30.07,SSE,153,0.0,2.0,79,0.00,,,0.61,,2013-05-29 15:01:00,
2013-05-29 11:11:00,71.0,64.0,30.07,SSE,153,0.0,2.0,79,0.00,,,0.61,,2013-05-29 15:11:00,
2013-05-29 11:21:00,71.0,64.0,30.08,East,100,0.0,3.0,78,0.00,,,0.61,,2013-05-29 15:21:00,
2013-05-29 11:33:00,73.0,65.0,30.08,North,11,1.0,4.0,75,0.00,,,0.61,,2013-05-29 15:33:00,
2013-05-29 11:42:00,73.0,65.0,30.08,North,11,1.0,4.0,75,0.00,,,0.61,,2013-05-29 15:42:00,
2013-05-29 11:53:00,73.0,65.0,30.07,East,91,0.0,3.0,75,0.00,,,0.61,,2013-05-29 15:53:00,
2013-05-29 12:03:00,75.0,66.0,30.07,SSW,195,0.0,3.0,73,0.00,,,0.61,,2013-05-29 16:03:00,
2013-05-29 12:13:00,75.0,66.0,30.07,SSW,195,0.0,3.0,73,0.00,,,0.61,,2013-05-29 16:13:00,
2013-05-29 12:22:00,75.0,65.0,30.07,WSW,238,0.0,4.0,72,0.00,,,0.61,,2013-05-29 16:22:00,
2013-05-29 12:33:00,75.0,65.0,30.07,WSW,238,0.0,4.0,72,0.00,,,0.61,,2013-05-29 16:33:00,
2013-05-29 12:42:00,75.0,65.0,30.07,WSW,238,0.0,4.0,72,0.00,,,0.61,,2013-05-29 16:42:00,
2013-05-29 12:52:00,75.0,66.0,30.06,SSE,162,1.0,3.0,73,0.00,,,0.60,,2013-05-29 16:52:00,
2013-05-29 13:02:00,75.0,65.0,30.06,SE,146,1.0,3.0,72,0.00,,,0.60,,2013-05-29 17:02:00,
2013-05-29 13:12:00,75.0,65.0,30.06,SE,146,1.0,3.0,72,0.00,,,0.60,,2013-05-29 17:12:00,
2013-05-29 13:22:00,77.0,67.0,30.06,SSE,163,1.0,4.0,71,0.00,,,0.60,,2013-05-29 17:22:00,
2013-05-29 13:32:00,77.0,66.0,30.06,SE,142,0.0,4.0,69,0.00,,,0.56,,2013-05-29 17:32:00,
2013-05-29 13:42:00,77.0,66.0,30.06,SE,142,0.0,4.0,69,0.00,,,0.56,,2013-05-29 17:42:00,
2013-05-29 13:52:00,78.0,67.0,30.05,South,180,1.0,5.0,68,0.00,,,0.56,,2013-05-29 17:52:00,
2013-05-29 14:01:00,79.0,68.0,30.05,SSW,211,0.0,3.0,68,0.00,,,0.56,,2013-05-29 18:01:00,
2013-05-29 14:13:00,79.0,68.0,30.05,SSW,211,0.0,3.0,68,0.00,,,0.56,,2013-05-29 18:13:00,
2013-05-29 14:22:00,79.0,66.0,30.05,South,180,2.0,6.0,64,0.00,,,0.56,,2013-05-29 18:22:00,
2013-05-29 14:32:00,78.0,65.0,30.05,SSE,156,3.0,6.0,65,0.00,,,0.53,,2013-05-29 18:32:00,
2013-05-29 14:42:00,78.0,65.0,30.05,SSE,156,3.0,6.0,65,0.00,,,0.53,,2013-05-29 18:42:00,
2013-05-29 14:52:00,79.0,66.0,30.05,SSE,155,2.0,6.0,64,0.00,,,0.53,,2013-05-29 18:52:00,
2013-05-29 15:02:00,78.0,65.0,30.04,SE,133,3.0,9.0,65,0.00,,,0.53,,2013-05-29 19:02:00,
2013-05-29 15:11:00,78.0,65.0,30.04,SE,133,3.0,9.0,65,0.00,,,0.53,,2013-05-29 19:11:00,
2013-05-29 15:22:00,78.0,65.0,30.04,SSE,155,2.0,9.0,64,0.00,,,0.53,,2013-05-29 19:22:00,
2013-05-29 15:32:00,77.0,64.0,30.04,South,172,3.0,8.0,65,0.00,,,0.48,,2013-05-29 19:32:00,
2013-05-29 15:44:00,77.0,64.0,30.04,South,172,3.0,8.0,65,0.00,,,0.48,,2013-05-29 19:44:00,
2013-05-29 15:53:00,77.0,65.0,30.03,SSE,155,1.0,9.0,66,0.00,,,0.48,,2013-05-29 19:53:00,
2013-05-29 16:03:00,78.0,66.0,30.03,SSE,162,2.0,7.0,66,0.00,,,0.48,,2013-05-29 20:03:00,
2013-05-29 16:11:00,78.0,66.0,30.03,SSE,162,2.0,7.0,66,0.00,,,0.48,,2013-05-29 20:11:00,
2013-05-29 16:23:00,80.0,66.0,30.03,SE,124,1.0,5.0,63,0.00,,,0.48,,2013-05-29 20:23:00,
2013-05-29 16:33:00,80.0,67.0,30.02,SSE,152,4.0,10.0,64,0.00,,,0.26,,2013-05-29 20:33:00,
2013-05-29 16:42:00,80.0,67.0,30.02,SSE,152,4.0,10.0,64,0.00,,,0.26,,2013-05-29 20:42:00,
2013-05-29 16:52:00,80.0,67.0,30.02,SSW,197,3.0,8.0,64,0.00,,,0.26,,2013-05-29 20:52:00,
2013-05-29 17:02:00,80.0,67.0,30.02,SSW,197,3.0,8.0,64,0.00,,,0.26,,2013-05-29 21:02:00,
2013-05-29 17:12:00,80.0,67.0,30.02,SSW,197,3.0,8.0,64,0.00,,,0.26,,2013-05-29 21:12:00,
2013-05-29 17:22:00,81.0,67.0,30.01,SSE,160,4.0,8.0,63,0.00,,,0.26,,2013-05-29 21:22:00,
2013-05-29 17:33:00,81.0,66.0,30.01,South,185,3.0,8.0,61,0.00,,,0.04,,2013-05-29 21:33:00,
2013-05-29 17:43:00,81.0,66.0,30.01,South,185,3.0,8.0,61,0.00,,,0.04,,2013-05-29 21:43:00,
2013-05-29 17:53:00,82.0,66.0,30.00,South,170,3.0,7.0,59,0.00,,,0.04,,2013-05-29 21:53:00,
2013-05-29 18:03:00,81.0,65.0,30.00,SSE,161,2.0,6.0,59,0.00,,,0.04,,2013-05-29 22:03:00,
2013-05-29 18:12:00,81.0,65.0,30.00,SSE,161,2.0,6.0,59,0.00,,,0.04,,2013-05-29 22:12:00,
2013-05-29 18:23:00,80.0,65.0,30.00,SE,138,2.0,5.0,60,0.00,,,0.04,,2013-05-29 22:23:00,
2013-05-29 18:34:00,79.0,64.0,30.00,South,176,1.0,6.0,61,0.00,,,0.03,,2013-05-29 22:34:00,
2013-05-29 18:42:00,79.0,64.0,30.00,South,176,1.0,6.0,61,0.00,,,0.03,,2013-05-29 22:42:00,
2013-05-29 18:53:00,79.0,64.0,30.00,SSE,165,1.0,5.0,61,0.00,,,0.03,,2013-05-29 22:53:00,
2013-05-29 19:02:00,79.0,64.0,29.99,SSW,211,2.0,6.0,61,0.00,,,0.03,,2013-05-29 23:02:00,
2013-05-29 19:12:00,79.0,64.0,29.99,SSW,211,2.0,6.0,61,0.00,,,0.03,,2013-05-29 23:12:00,
2013-05-29 19:22:00,79.0,64.0,29.99,SSE,167,1.0,5.0,61,0.00,,,0.03,,2013-05-29 23:22:00,
2013-05-29 19:33:00,78.0,64.0,29.99,SSW,212,1.0,5.0,62,0.00,,,0.01,,2013-05-29 23:33:00,
2013-05-29 19:42:00,78.0,64.0,29.99,SSW,212,1.0,5.0,62,0.00,,,0.01,,2013-05-29 23:42:00,
2013-05-29 19:53:00,78.0,64.0,29.98,SSE,158,0.0,3.0,62,0.00,,,0.01,,2013-05-29 23:53:00,
2013-05-29 20:02:00,78.0,64.0,29.99,SSE,163,0.0,3.0,63,0.00,,,0.01,,2013-05-30 00:02:00,
2013-05-29 20:12:00,78.0,64.0,29.99,SSE,163,0.0,3.0,63,0.00,,,0.01,,2013-05-30 00:12:00,
2013-05-29 20:22:00,77.0,64.0,29.98,SSE,167,1.0,4.0,64,0.00,,,0.01,,2013-05-30 00:22:00,
2013-05-29 20:32:00,76.0,63.0,29.98,SSE,150,1.0,4.0,65,0.00,,,0.00,,2013-05-30 00:32:00,
2013-05-29 20:42:00,76.0,63.0,29.98,SSE,150,1.0,4.0,65,0.00,,,0.00,,2013-05-30 00:42:00,
2013-05-29 20:52:00,75.0,63.0,29.99,SE,146,0.0,1.0,67,0.00,,,0.00,,2013-05-30 00:52:00,
2013-05-29 21:02:00,74.0,63.0,29.99,South,187,0.0,1.0,69,0.00,,,0.00,,2013-05-30 01:02:00,
2013-05-29 21:11:00,74.0,63.0,29.99,South,187,0.0,1.0,69,0.00,,,0.00,,2013-05-30 01:11:00,
2013-05-29 21:22:00,74.0,63.0,30.00,SSE,150,0.0,2.0,69,0.00,,,0.00,,2013-05-30 01:22:00,
2013-05-29 21:32:00,74.0,63.0,29.99,SE,145,0.0,3.0,69,0.00,,,0.00,,2013-05-30 01:32:00,
2013-05-29 21:42:00,74.0,63.0,29.99,SE,145,0.0,3.0,69,0.00,,,0.00,,2013-05-30 01:42:00,
2013-05-29 21:52:00,74.0,63.0,30.00,SSE,160,0.0,1.0,69,0.00,,,0.00,,2013-05-30 01:52:00,
2013-05-29 22:02:00,74.0,63.0,30.00,SSE,158,0.0,3.0,69,0.00,,,0.00,,2013-05-30 02:02:00,
2013-05-29 22:11:00,74.0,63.0,30.00,SSE,158,0.0,3.0,69,0.00,,,0.00,,2013-05-30 02:11:00,
2013-05-29 22:22:00,74.0,64.0,30.01,South,169,0.0,2.0,70,0.00,,,0.00,,2013-05-30 02:22:00,
2013-05-29 22:32:00,75.0,65.0,30.02,South,177,0.0,2.0,70,0.00,,,0.00,,2013-05-30 02:32:00,
2013-05-29 22:42:00,75.0,65.0,30.02,South,177,0.0,2.0,70,0.00,,,0.00,,2013-05-30 02:42:00,
2013-05-29 22:52:00,75.0,65.0,30.02,South,177,0.0,2.0,70,0.00,,,0.00,,2013-05-30 02:52:00,
2013-05-29 23:02:00,78.0,65.0,30.03,South,181,0.0,2.0,65,0.00,,,0.00,,2013-05-30 03:02:00,
2013-05-29 23:11:00,78.0,65.0,30.04,NNW,333,0.0,2.0,65,0.00,,,0.00,,2013-05-30 03:11:00,
2013-05-29 23:21:00,78.0,65.0,30.04,NNW,333,0.0,2.0,65,0.00,,,0.00,,2013-05-30 03:21:00,
2013-05-29 23:33:00,78.0,66.0,30.04,SW,225,0.0,3.0,66,0.00,,,0.00,,2013-05-30 03:33:00,
2013-05-29 23:43:00,78.0,66.0,30.04,SW,225,0.0,3.0,66,0.00,,,0.00,,2013-05-30 03:43:00,
2013-05-29 23:53:00,78.0,66.0,30.05,SSE,158,0.0,2.0,66,0.00,,,0.00,,2013-05-30 03:53:00,